Location: Mococo
(38.0255°N, 122.1161°W)
Time: 07:00:17
(UTC+00:00)

GP-B - Pass Details

Date: 13 February 2026
Orbit: 618 x 621 km, 89.8° (Epoch: 9 March)

Event Time Altitude Azimuth Distance (km) Brightness Sun altitude
Rises 14:03:21 0° 360° (N) 2,901 6.4 -11.9°
Reaches altitude 10° 14:05:34 10° 359° (N) 1,990 5.6 -11.4°
Maximum altitude 14:09:55 76° 274° (W) 640 3.0 -10.6°
Drops below altitude 10° 14:14:15 10° 189° (S) 1,974 5.7 -9.7°
Sets 14:16:27 0° 187° (S) 2,875 6.5 -9.3°
